User: anonymous   Login
Location: Harbor Island
(32.3990°N, 80.4435°W)
Time: 01:04:01
(UTC-04:00)
Language:

Cosmos 1455 - Orbit

View from above orbital plane
View from above orbital plane
View from above satellite
View from above satellite

Ground track
Ground track

The orbit data is extracted from the following two-line orbital elements,

1 14032U 83037A   15211.40059654  .00001318  00000-0  69023-4 0  9991
2 14032 082.5157 045.4219 0019529 141.7011 289.4391 15.14778821757173
Epoch (UTC): 30 July 2015 09:36:51
Eccentricity: 0.0019529
inclination: 82.5157°
perigee height: 508 km
apogee height: 535 km
right ascension of ascending node: 45.4219°
argument of perigee: 141.7011°
revolutions per day: 15.14778821
mean anomaly at epoch: 289.4391°
orbit number at epoch: 75717

The dashed part of the orbit path shows where the satellite is in the earth's shadow,  

DLR